DECAYED

STARLINK-1159, 45057 (Decayed)

Orbit data source: Space-Track

STARLINK-1159, 45057 was a payload satellite owned by SpaceX/Seattle (US) in LEO that was launched on Wed, 29 Jan 2020 UTC via an FALCON 9 launch vehicle from the Air Force Eastern Test Range (AFETR). Payload-class satellites include a variety of spacecraft equipped with specific instruments for various scientific and technological missions. These include communications satellites like Starlink; space stations such as the ISS; scientific satellites like the Hubble; Earth observation satellites from companies like Planet Labs, Umbra, and HawkEye 360; GPS; miniature CubeSats for education and research; and military/defense satellites.

Not visible in the next 10 days
Identifier
45057, 2020-006P
Orbit
Decayed
Country
Flag of USUS
Related business
Manufacturer
SpaceX/Seattle
Mission
Decayed Commercial Communications
Bus & Motor
STARLINK, Unknown motor
Mass
260 kg wet, ~248 kg dry
Launch date (UTC)
2020-01-29 (6 years ago)
Launch vehicle
FALCON 9
Launch site
Air Force Eastern Test Range (AFETR)
Object type
Payload
Rocket body
Debris
Shape & HBR
Box + 1 Pan, 10.1 m
Radar Cross Section
13.562 m², Large (>1 m²)

Expand to show TLE details & history
Last TLE update: 1 week ago

TLE from 1 week ago
0 STARLINK-1159
1 45057U 20006P   26127.35811795  .12976269  12630-4  22327-3 0  9993
2 45057  53.0212 293.1503 0008340 297.0210  62.9988 16.47310035346561
Epoch: 2026-05-07T08:35Z
TLE epoch observation values (Epoch: 2026-05-07T08:35:41.390Z)
Latitude
-0°
Longitude
-60.97757°
Altitude
144.891 km
Speed
7.822 km/s
True Right ascension
19h 32m 36s
True Declination
0° 00' 00"
Sunlit
Object was in full shadow at epoch
Visualization orbit readout
Latitude
Unknown
Longitude
Unknown
Altitude
Unknown
Speed
Unknown
Apparent Right ascension
Unknown
Apparent Declination
Unknown
Sunlit
N/A
Visualization observer readout
Local Sidereal Time
20:39:58
Azimuth
Unknown
Elevation
Unknown
Doppler factor
Unknown
Orbital elements
Apogee altitude
152.163 km
Perigee altitude
141.28 km
Semi-major axis
6,524.858 km
Eccentricity
0.00083
Inclination
53.0212°
RAAN
293.1503°
Arg. of periapsis
297.021°
True anomaly
63.08399°
Mean anomaly
62.9988°
Eccentric anomaly
63.04139°
Mean motion
4.118 °/min
Orbital period
87.42 mins
BSTAR
0.00022327
Loading maneuver chart data...
Computing Atmospheric mass density...

Documentation

Showing up to 5 results
|